,,,PA_Meas_PMT16A,,PR_Meas_QMR101_102,,RH_Meas_QMH101,,SR_Meas_QMS101,,TA_Meas_QMH101,,GenWind,,GenWind,
date,time,status,PA,status,PR,status,RH,status,SR,status,TA,status,DirAvg,status,SpdAvg,
2008-04-14, 00:00:05,VALID,1002.6,VALID,0,VALID,92.2179,VALID,0,VALID,24.6398,VALID,64,VALID,0.580469,
2008-04-14, 00:01:05,VALID,1002.57,VALID,0,VALID,92.4468,VALID,0,VALID,24.6983,VALID,95,VALID,0.423828,
2008-04-14, 00:02:05,VALID,1002.57,VALID,0,VALID,92.1264,VALID,0,VALID,24.7567,VALID,95,VALID,0.142578,
2008-04-14, 00:03:05,VALID,1002.54,VALID,0,VALID,91.9967,VALID,0,VALID,24.7586,VALID,37,VALID,0.466406,
2008-04-14, 00:04:05,VALID,1002.52,VALID,0,VALID,91.8822,VALID,0.100563,VALID,24.7567,VALID,38,VALID,0.132422,
2008-04-14, 00:05:05,VALID,1002.49,VALID,0,VALID,91.8594,VALID,0,VALID,24.6983,VALID,38,VALID,0.125391,
2008-04-14, 00:06:05,VALID,1002.49,VALID,0,VALID,91.989,VALID,0,VALID,24.6593,VALID,38,VALID,0,
2008-04-14, 00:07:04,VALID,1002.48,VALID,0,VALID,92.134,VALID,0,VALID,24.6204,VALID,35,VALID,0.273438,
2008-04-14, 00:08:04,VALID,1002.45,VALID,0,VALID,92.3018,VALID,0,VALID,24.5814,VALID,35,VALID,0.240234,
2008-04-14, 00:09:04,VALID,1002.43,VALID,0,VALID,92.4163,VALID,0,VALID,24.6028,VALID,35,VALID,0.297656,
2008-04-14, 00:10:04,VALID,1002.43,VALID,0,VALID,92.5154,VALID,0,VALID,24.5425,VALID,35,VALID,0.0964844,
2008-04-14, 00:11:04,VALID,1002.4,VALID,0,VALID,92.7367,VALID,0,VALID,24.5425,VALID,14,VALID,0.258594,
2008-04-14, 00:12:04,VALID,1002.39,VALID,0,VALID,92.7901,VALID,0,VALID,24.562,VALID,13,VALID,0.190234,
2008-04-14, 00:13:04,VALID,1002.39,VALID,0,VALID,92.813,VALID,0,VALID,24.562,VALID,28,VALID,0.491406,
2008-04-14, 00:14:04,VALID,1002.37,VALID,0,VALID,92.9961,VALID,0,VALID,24.6204,VALID,84,VALID,0.677734,
2008-04-14, 00:15:04,VALID,1002.34,VALID,0,VALID,92.8206,VALID,0.100563,VALID,24.6788,VALID,77,VALID,0.214062,
2008-04-14, 00:16:04,VALID,1002.31,VALID,0,VALID,92.7443,VALID,0,VALID,24.6983,VALID,12,VALID,0.0769531,
2008-04-14, 00:17:04,VALID,1002.29,VALID,0,VALID,92.5231,VALID,0,VALID,24.7372,VALID,12,VALID,0.425781,
2008-04-14, 00:18:04,VALID,1002.25,VALID,0,VALID,92.3857,VALID,0,VALID,24.7372,VALID,13,VALID,0.436328,
2008-04-14, 00:19:04,VALID,1002.24,VALID,0,VALID,92.2942,VALID,0,VALID,24.7567,VALID,12,VALID,0.326172,
2008-04-14, 00:20:04,VALID,1002.24,VALID,0,VALID,92.0806,VALID,0,VALID,24.7956,VALID,12,VALID,0.538281,
2008-04-14, 00:21:04,VALID,1002.21,VALID,0,VALID,92.0958,VALID,0.100563,VALID,24.7761,VALID,10,VALID,0.575391,
2008-04-14, 00:22:04,VALID,1002.22,VALID,0,VALID,91.928,VALID,0,VALID,24.7761,VALID,8,VALID,0.541797,
2008-04-14, 00:23:04,VALID,1002.2,VALID,0,VALID,91.9356,VALID,0.100563,VALID,24.7372,VALID,4,VALID,0.535937,
2008-04-14, 00:24:04,VALID,1002.19,VALID,0,VALID,92.195,VALID,0,VALID,24.6983,VALID,4,VALID,0.380469,
2008-04-14, 00:25:04,VALID,1002.18,VALID,0,VALID,92.1798,VALID,0,VALID,24.6204,VALID,5,VALID,0.361719,
2008-04-14, 00:26:04,VALID,1002.16,VALID,0,VALID,92.2637,VALID,0,VALID,24.562,VALID,5,VALID,0.447656,
2008-04-14, 00:27:04,VALID,1002.13,VALID,0,VALID,92.4849,VALID,0,VALID,24.5035,VALID,5,VALID,0.394922,
2008-04-14, 00:28:04,VALID,1002.14,VALID,0,VALID,92.6528,VALID,0,VALID,24.4646,VALID,5,VALID,0.219141,
2008-04-14, 00:29:04,VALID,1002.11,VALID,0,VALID,92.8511,VALID,0,VALID,24.4062,VALID,5,VALID,0.151172,
2008-04-14, 00:30:04,VALID,1002.13,VALID,0,VALID,93.0495,VALID,0,VALID,24.3886,VALID,5,VALID,0,
2008-04-14, 00:31:04,VALID,1002.13,VALID,0,VALID,93.2859,VALID,0,VALID,24.3478,VALID,5,VALID,0,
2008-04-14, 00:32:04,VALID,1002.13,VALID,0,VALID,93.469,VALID,0,VALID,24.3283,VALID,5,VALID,0,
2008-04-14, 00:33:04,VALID,1002.12,VALID,0,VALID,93.553,VALID,0,VALID,24.2699,VALID,5,VALID,0,
2008-04-14, 00:34:04,VALID,1002.08,VALID,0,VALID,93.7208,VALID,0,VALID,24.2504,VALID,5,VALID,0,
2008-04-14, 00:35:04,VALID,1002.08,VALID,0,VALID,93.7895,VALID,0,VALID,24.231,VALID,5,VALID,0,
2008-04-14, 00:36:04,VALID,1002.06,VALID,0,VALID,94.0031,VALID,0,VALID,24.2115,VALID,5,VALID,0,
2008-04-14, 00:37:04,VALID,1002.05,VALID,0,VALID,94.1022,VALID,0,VALID,24.2115,VALID,5,VALID,0,
2008-04-14, 00:38:04,VALID,1002.01,VALID,0,VALID,94.1175,VALID,0,VALID,24.192,VALID,5,VALID,0,
2008-04-14, 00:39:04,VALID,1002.02,VALID,0,VALID,94.293,VALID,0,VALID,24.192,VALID,5,VALID,0,
2008-04-14, 00:40:04,VALID,1002.01,VALID,0,VALID,94.2777,VALID,0,VALID,24.1939,VALID,5,VALID,0,
2008-04-14, 00:41:04,VALID,1002.03,VALID,0,VALID,94.3387,VALID,0,VALID,24.1939,VALID,9,VALID,0,
2008-04-14, 00:42:04,VALID,1002.02,VALID,0,VALID,94.4684,VALID,0,VALID,24.1318,VALID,11,VALID,0,
2008-04-14, 00:43:04,VALID,1002.02,VALID,0,VALID,94.4837,VALID,0,VALID,24.1336,VALID,11,VALID,0,
2008-04-14, 00:44:04,VALID,1002.02,VALID,0,VALID,94.5295,VALID,0,VALID,24.1336,VALID,11,VALID,0,
2008-04-14, 00:45:04,VALID,1001.99,VALID,0,VALID,94.5142,VALID,0,VALID,24.1142,VALID,11,VALID,0,
2008-04-14, 00:46:04,VALID,1002.02,VALID,0,VALID,94.6439,VALID,0,VALID,24.1142,VALID,11,VALID,0,
2008-04-14, 00:47:04,VALID,1001.98,VALID,0,VALID,94.6668,VALID,0,VALID,24.116,VALID,11,VALID,0,
2008-04-14, 00:48:04,VALID,1001.98,VALID,0,VALID,94.7202,VALID,0,VALID,24.0947,VALID,11,VALID,0,
2008-04-14, 00:49:04,VALID,1002,VALID,0,VALID,94.8041,VALID,0,VALID,24.0947,VALID,11,VALID,0,
2008-04-14, 00:50:04,VALID,1001.99,VALID,0,VALID,94.9109,VALID,0,VALID,24.1142,VALID,11,VALID,0,
2008-04-14, 00:51:04,VALID,1001.94,VALID,0,VALID,94.9109,VALID,0,VALID,24.0947,VALID,11,VALID,0,
2008-04-14, 00:52:04,VALID,1001.99,VALID,0,VALID,94.9185,VALID,0.100563,VALID,24.0947,VALID,11,VALID,0,
2008-04-14, 00:53:04,VALID,1001.97,VALID,0,VALID,94.9262,VALID,0,VALID,24.0965,VALID,12,VALID,0,
2008-04-14, 00:54:04,VALID,1001.95,VALID,0,VALID,94.9872,VALID,0,VALID,24.077,VALID,12,VALID,0,
2008-04-14, 00:55:04,VALID,1001.94,VALID,0,VALID,95.0864,VALID,0,VALID,24.0752,VALID,11,VALID,0,
2008-04-14, 00:56:04,VALID,1001.91,VALID,0,VALID,95.1093,VALID,0,VALID,24.116,VALID,11,VALID,0,
2008-04-14, 00:57:04,VALID,1001.88,VALID,0,VALID,95.1703,VALID,0,VALID,24.116,VALID,11,VALID,0,
2008-04-14, 00:58:04,VALID,1001.9,VALID,0,VALID,95.1245,VALID,0,VALID,24.1336,VALID,11,VALID,0,
2008-04-14, 00:59:04,VALID,1001.82,VALID,0,VALID,95.1093,VALID,0,VALID,24.1549,VALID,11,VALID,0,
2008-04-14, 01:00:04,VALID,1001.83,VALID,0,VALID,95.094,VALID,0,VALID,24.1336,VALID,11,VALID,0,
2008-04-14, 01:01:04,VALID,1001.8,VALID,0,VALID,95.0635,VALID,0,VALID,24.1123,VALID,11,VALID,0,
2008-04-14, 01:02:04,VALID,1001.79,VALID,0,VALID,95.0787,VALID,0,VALID,24.1549,VALID,11,VALID,0,
2008-04-14, 01:03:04,VALID,1001.75,VALID,0,VALID,95.0711,VALID,0,VALID,24.1531,VALID,11,VALID,0,
2008-04-14, 01:04:04,VALID,1001.75,VALID,0,VALID,95.0711,VALID,0,VALID,24.1744,VALID,11,VALID,0,
2008-04-14, 01:05:04,VALID,1001.68,VALID,0,VALID,95.2313,VALID,0,VALID,24.1707,VALID,11,VALID,0,
2008-04-14, 01:06:04,VALID,1001.65,VALID,0,VALID,95.2084,VALID,0,VALID,24.1707,VALID,11,VALID,0,
2008-04-14, 01:07:04,VALID,1001.64,VALID,0,VALID,95.1321,VALID,0,VALID,24.192,VALID,11,VALID,0,
2008-04-14, 01:08:04,VALID,1001.63,VALID,0,VALID,95.1321,VALID,0,VALID,24.2115,VALID,11,VALID,0,
2008-04-14, 01:09:04,VALID,1001.64,VALID,0,VALID,95.1093,VALID,0,VALID,24.2097,VALID,12,VALID,0,
2008-04-14, 01:10:04,VALID,1001.59,VALID,0,VALID,95.1093,VALID,0,VALID,24.2523,VALID,11,VALID,0,
2008-04-14, 01:11:04,VALID,1001.6,VALID,0,VALID,95.1016,VALID,0,VALID,24.231,VALID,11,VALID,0,
2008-04-14, 01:12:04,VALID,1001.58,VALID,0,VALID,95.1093,VALID,0,VALID,24.231,VALID,11,VALID,0,
2008-04-14, 01:13:04,VALID,1001.57,VALID,0,VALID,95.1627,VALID,0,VALID,24.2523,VALID,11,VALID,0,
2008-04-14, 01:14:04,VALID,1001.59,VALID,0,VALID,95.2237,VALID,0,VALID,24.231,VALID,12,VALID,0,
2008-04-14, 01:15:04,VALID,1001.61,VALID,0,VALID,95.1779,VALID,0,VALID,24.2504,VALID,12,VALID,0,
2008-04-14, 01:16:04,VALID,1001.57,VALID,0,VALID,95.1321,VALID,0,VALID,24.231,VALID,13,VALID,0,
2008-04-14, 01:17:04,VALID,1001.56,VALID,0,VALID,95.1474,VALID,0,VALID,24.231,VALID,27,VALID,0,
2008-04-14, 01:18:04,VALID,1001.55,VALID,0,VALID,95.155,VALID,0,VALID,24.231,VALID,27,VALID,0,
2008-04-14, 01:19:04,VALID,1001.54,VALID,0,VALID,95.1093,VALID,0,VALID,24.2115,VALID,27,VALID,0,
2008-04-14, 01:20:04,VALID,1001.55,VALID,0,VALID,95.1627,VALID,0,VALID,24.2115,VALID,27,VALID,0,
2008-04-14, 01:21:04,VALID,1001.55,VALID,0,VALID,95.1703,VALID,0,VALID,24.2328,VALID,27,VALID,0,
2008-04-14, 01:22:04,VALID,1001.57,VALID,0,VALID,95.155,VALID,0,VALID,24.1902,VALID,27,VALID,0,
2008-04-14, 01:23:04,VALID,1001.52,VALID,0,VALID,95.1779,VALID,0,VALID,24.2115,VALID,27,VALID,0,
2008-04-14, 01:24:04,VALID,1001.51,VALID,0,VALID,95.2313,VALID,0,VALID,24.192,VALID,27,VALID,0,
2008-04-14, 01:25:04,VALID,1001.52,VALID,0,VALID,95.2466,VALID,0,VALID,24.192,VALID,27,VALID,0,
2008-04-14, 01:26:04,VALID,1001.46,VALID,0,VALID,95.3763,VALID,0,VALID,24.231,VALID,29,VALID,0,
2008-04-14, 01:27:04,VALID,1001.45,VALID,0,VALID,95.4144,VALID,0,VALID,24.2681,VALID,29,VALID,0,
2008-04-14, 01:28:04,VALID,1001.43,VALID,0,VALID,95.3305,VALID,0,VALID,24.2894,VALID,29,VALID,0,
2008-04-14, 01:29:04,VALID,1001.4,VALID,0,VALID,95.2695,VALID,0,VALID,24.2894,VALID,29,VALID,0,
2008-04-14, 01:30:04,VALID,1001.41,VALID,0,VALID,95.2161,VALID,0,VALID,24.2894,VALID,29,VALID,0,
2008-04-14, 01:31:04,VALID,1001.41,VALID,0,VALID,95.2313,VALID,0,VALID,24.3088,VALID,32,VALID,0,
2008-04-14, 01:32:04,VALID,1001.43,VALID,0,VALID,95.1932,VALID,0,VALID,24.3283,VALID,59,VALID,0.507422,
2008-04-14, 01:33:04,VALID,1001.43,VALID,0,VALID,95.1169,VALID,0,VALID,24.3283,VALID,67,VALID,0.41875,
2008-04-14, 01:34:04,VALID,1001.41,VALID,0,VALID,95.0101,VALID,0,VALID,24.3088,VALID,67,VALID,0.291406,
2008-04-14, 01:35:04,VALID,1001.43,VALID,0,VALID,94.9872,VALID,0,VALID,24.2894,VALID,67,VALID,0.307813,
2008-04-14, 01:36:04,VALID,1001.42,VALID,0,VALID,94.9643,VALID,0,VALID,24.2894,VALID,67,VALID,0.194141,
2008-04-14, 01:37:04,VALID,1001.38,VALID,0,VALID,95.0101,VALID,0,VALID,24.2894,VALID,67,VALID,0.221875,
2008-04-14, 01:38:04,VALID,1001.39,VALID,0,VALID,95.0482,VALID,0,VALID,24.2912,VALID,67,VALID,0.222656,
2008-04-14, 01:39:04,VALID,1001.39,VALID,0,VALID,95.0482,VALID,0,VALID,24.2894,VALID,68,VALID,0.385547,
2008-04-14, 01:40:04,VALID,1001.32,VALID,0,VALID,95.1093,VALID,0,VALID,24.2894,VALID,74,VALID,0.434375,
2008-04-14, 01:41:04,VALID,1001.36,VALID,0,VALID,95.2389,VALID,0,VALID,24.3302,VALID,77,VALID,0.542188,
2008-04-14, 01:42:04,VALID,1001.34,VALID,0,VALID,95.2923,VALID,0,VALID,24.3673,VALID,78,VALID,0.3375,
2008-04-14, 01:43:04,VALID,1001.33,VALID,0,VALID,95.2618,VALID,0,VALID,24.4275,VALID,78,VALID,0.300391,
2008-04-14, 01:44:04,VALID,1001.29,VALID,0,VALID,95.2618,VALID,0,VALID,24.4665,VALID,78,VALID,0.310547,
2008-04-14, 01:45:04,VALID,1001.29,VALID,0,VALID,95.2237,VALID,0,VALID,24.4841,VALID,78,VALID,0.457031,
2008-04-14, 01:46:04,VALID,1001.24,VALID,0,VALID,95.2008,VALID,0,VALID,24.523,VALID,78,VALID,0.0621094,
2008-04-14, 01:47:04,VALID,1001.21,VALID,0,VALID,95.1093,VALID,0,VALID,24.5425,VALID,78,VALID,0.0128906,
2008-04-14, 01:48:04,VALID,1001.21,VALID,0,VALID,95.0024,VALID,0,VALID,24.5814,VALID,78,VALID,0.200781,
2008-04-14, 01:49:04,VALID,1001.23,VALID,0,VALID,94.9033,VALID,0,VALID,24.6222,VALID,78,VALID,0.3625,
2008-04-14, 01:50:04,VALID,1001.25,VALID,0,VALID,94.7583,VALID,0,VALID,24.6009,VALID,75,VALID,0.486719,
2008-04-14, 01:51:04,VALID,1001.31,VALID,0,VALID,94.682,VALID,0,VALID,24.6009,VALID,81,VALID,1.12578,
2008-04-14, 01:52:04,VALID,1001.4,VALID,0,VALID,94.7965,VALID,0,VALID,24.6204,VALID,101,VALID,1.70117,
2008-04-14, 01:53:04,VALID,1001.44,VALID,0,VALID,94.8651,VALID,0.100563,VALID,24.7159,VALID,113,VALID,0.935547,
2008-04-14, 01:54:04,VALID,1001.45,VALID,0,VALID,93.0876,VALID,0.100563,VALID,24.7353,VALID,80,VALID,2.15156,
2008-04-14, 01:55:04,VALID,1001.4,VALID,0,VALID,89.7461,VALID,0.100563,VALID,24.7743,VALID,95,VALID,2.41797,
2008-04-14, 01:56:04,VALID,1001.43,VALID,0,VALID,89.3266,VALID,0.100563,VALID,24.8327,VALID,110,VALID,1.25937,
2008-04-14, 01:57:04,VALID,1001.42,VALID,0,VALID,88.3272,VALID,0,VALID,24.8132,VALID,100,VALID,2.20039,
2008-04-14, 01:58:04,VALID,1001.42,VALID,0,VALID,88.4721,VALID,0.100563,VALID,24.6964,VALID,103,VALID,2.11094,
2008-04-14, 01:59:04,VALID,1001.38,VALID,0,VALID,88.5332,VALID,0.100563,VALID,24.6204,VALID,84,VALID,1.61484,
2008-04-14, 02:00:04,VALID,1001.41,VALID,0,VALID,89.0138,VALID,0.100563,VALID,24.4822,VALID,78,VALID,2.48906,
2008-04-14, 02:01:04,VALID,1001.38,VALID,0,VALID,89.7309,VALID,0.100563,VALID,24.4062,VALID,87,VALID,0.910937,
2008-04-14, 02:02:04,VALID,1001.38,VALID,0,VALID,89.4563,VALID,0.100563,VALID,24.3088,VALID,108,VALID,2.23633,
2008-04-14, 02:03:04,VALID,1001.32,VALID,0,VALID,89.9674,VALID,0.100563,VALID,24.2097,VALID,88,VALID,2.16875,
2008-04-14, 02:04:04,VALID,1001.29,VALID,0,VALID,90.12,VALID,0.100563,VALID,24.1318,VALID,80,VALID,1.8332,
2008-04-14, 02:05:04,VALID,1001.28,VALID,0,VALID,90.5472,VALID,0.100563,VALID,24.0734,VALID,89,VALID,0.862891,
2008-04-14, 02:06:04,VALID,1001.28,VALID,0,VALID,90.8829,VALID,0.100563,VALID,24.0363,VALID,83,VALID,0.791016,
2008-04-14, 02:07:04,VALID,1001.29,VALID,0,VALID,90.6921,VALID,0.100563,VALID,23.9584,VALID,80,VALID,1.18789,
2008-04-14, 02:08:04,VALID,1001.26,VALID,0,VALID,90.7989,VALID,0.100563,VALID,23.8787,VALID,130,VALID,0.563281,
2008-04-14, 02:09:04,VALID,1001.26,VALID,0,VALID,90.2573,VALID,0.100563,VALID,23.8398,VALID,71,VALID,1.95977,
2008-04-14, 02:10:04,VALID,1001.24,VALID,0,VALID,90.5701,VALID,0.100563,VALID,23.7814,VALID,117,VALID,1.89492,
2008-04-14, 02:11:04,VALID,1001.23,VALID,0,VALID,90.982,VALID,0.100563,VALID,23.7266,VALID,100,VALID,1.02852,
2008-04-14, 02:12:04,VALID,1001.27,VALID,0,VALID,91.4321,VALID,0.100563,VALID,23.6469,VALID,115,VALID,1.89688,
2008-04-14, 02:13:04,VALID,1001.22,VALID,0,VALID,91.8212,VALID,0.100563,VALID,23.5885,VALID,114,VALID,1.24883,
2008-04-14, 02:14:04,VALID,1001.19,VALID,0,VALID,92.3323,VALID,0.100563,VALID,23.5089,VALID,128,VALID,0.823828,
2008-04-14, 02:15:04,VALID,1001.15,VALID,0,VALID,92.607,VALID,0.100563,VALID,23.4718,VALID,120,VALID,0.451172,
2008-04-14, 02:16:04,VALID,1001.13,VALID,0,VALID,92.8587,VALID,0.100563,VALID,23.4718,VALID,135,VALID,0.63125,
2008-04-14, 02:17:04,VALID,1001.14,VALID,0,VALID,93.0037,VALID,0,VALID,23.4116,VALID,107,VALID,1.15664,
2008-04-14, 02:18:04,VALID,1001.13,VALID,0,VALID,93.1868,VALID,0.100563,VALID,23.4134,VALID,121,VALID,1.22969,
2008-04-14, 02:19:04,VALID,1001.15,VALID,0,VALID,93.4156,VALID,0,VALID,23.4134,VALID,94,VALID,1.10625,
2008-04-14, 02:20:04,VALID,1001.11,VALID,0,VALID,93.5377,VALID,0.100563,VALID,23.3939,VALID,107,VALID,0.981641,
2008-04-14, 02:21:04,VALID,1001.09,VALID,0,VALID,93.5911,VALID,0.100563,VALID,23.3939,VALID,94,VALID,1.41094,
2008-04-14, 02:22:04,VALID,1001.06,VALID,0.5,VALID,93.6216,VALID,0.100563,VALID,23.3921,VALID,81,VALID,0.636328,
2008-04-14, 02:23:04,VALID,1001.02,VALID,0,VALID,93.7513,VALID,0,VALID,23.3744,VALID,81,VALID,0.661719,
2008-04-14, 02:24:04,VALID,1001,VALID,0,VALID,93.8047,VALID,0,VALID,23.3957,VALID,100,VALID,0.938281,
2008-04-14, 02:25:04,VALID,1000.96,VALID,0,VALID,93.8963,VALID,0,VALID,23.3762,VALID,95,VALID,0.175781,
2008-04-14, 02:26:04,VALID,1000.95,VALID,0,VALID,94.0412,VALID,0,VALID,23.355,VALID,95,VALID,0.191016,
2008-04-14, 02:27:04,VALID,1000.93,VALID,0,VALID,94.0107,VALID,0,VALID,23.3762,VALID,92,VALID,0.350391,
2008-04-14, 02:28:04,VALID,1000.97,VALID,0,VALID,94.1175,VALID,0,VALID,23.355,VALID,92,VALID,0.028125,
2008-04-14, 02:29:04,VALID,1000.95,VALID,0,VALID,94.2548,VALID,0,VALID,23.355,VALID,92,VALID,0,
2008-04-14, 02:30:04,VALID,1000.98,VALID,0,VALID,94.2624,VALID,0,VALID,23.3355,VALID,93,VALID,0.250781,
2008-04-14, 02:31:04,VALID,1001.02,VALID,0,VALID,94.2777,VALID,0,VALID,23.355,VALID,124,VALID,0.342578,
2008-04-14, 02:32:04,VALID,1001,VALID,0,VALID,94.2548,VALID,0,VALID,23.355,VALID,155,VALID,1.01172,
2008-04-14, 02:33:04,VALID,1001.07,VALID,0.5,VALID,94.3235,VALID,0,VALID,23.355,VALID,171,VALID,0.753516,
2008-04-14, 02:34:04,VALID,1001.07,VALID,0,VALID,94.3616,VALID,0,VALID,23.4151,VALID,174,VALID,0.872656,
2008-04-14, 02:35:04,VALID,1001.07,VALID,0,VALID,94.3235,VALID,0,VALID,23.3939,VALID,151,VALID,0.69375,
2008-04-14, 02:36:04,VALID,1001.11,VALID,0,VALID,94.4303,VALID,0,VALID,23.3939,VALID,149,VALID,0.674219,
2008-04-14, 02:37:04,VALID,1001.07,VALID,0,VALID,94.4303,VALID,0,VALID,23.3939,VALID,173,VALID,0.648828,
2008-04-14, 02:38:04,VALID,1001.05,VALID,0,VALID,94.4227,VALID,0.100563,VALID,23.4134,VALID,166,VALID,0.312109,
2008-04-14, 02:39:04,VALID,1001.02,VALID,0,VALID,94.5066,VALID,0.100563,VALID,23.4134,VALID,166,VALID,0,
2008-04-14, 02:40:04,VALID,1000.99,VALID,0,VALID,94.5676,VALID,0.100563,VALID,23.3921,VALID,166,VALID,0,
2008-04-14, 02:41:04,VALID,1000.96,VALID,0,VALID,94.6363,VALID,0.100563,VALID,23.3939,VALID,166,VALID,0,
2008-04-14, 02:42:04,VALID,1000.91,VALID,0,VALID,94.6897,VALID,0.100563,VALID,23.3939,VALID,165,VALID,0,
2008-04-14, 02:43:04,VALID,1000.91,VALID,0,VALID,94.6286,VALID,0.100563,VALID,23.3337,VALID,87,VALID,0.391016,
2008-04-14, 02:44:04,VALID,1000.89,VALID,0,VALID,94.6668,VALID,0.100563,VALID,23.3532,VALID,87,VALID,0.676172,
2008-04-14, 02:45:04,VALID,1000.85,VALID,0,VALID,94.6973,VALID,0.100563,VALID,23.355,VALID,86,VALID,0.182812,
2008-04-14, 02:46:04,VALID,1000.83,VALID,0,VALID,94.7354,VALID,0.100563,VALID,23.3143,VALID,86,VALID,0.232812,
2008-04-14, 02:47:04,VALID,1000.84,VALID,0,VALID,94.7965,VALID,0,VALID,23.3143,VALID,86,VALID,0,
2008-04-14, 02:48:04,VALID,1000.81,VALID,0,VALID,94.8575,VALID,0.100563,VALID,23.3143,VALID,86,VALID,0.114844,
2008-04-14, 02:49:04,VALID,1000.8,VALID,0,VALID,94.9262,VALID,0.100563,VALID,23.2948,VALID,72,VALID,0.535937,
2008-04-14, 02:50:04,VALID,1000.81,VALID,0,VALID,95.0024,VALID,0.100563,VALID,23.2948,VALID,56,VALID,0.242578,
2008-04-14, 02:51:04,VALID,1000.75,VALID,0,VALID,95.0558,VALID,0.100563,VALID,23.2948,VALID,77,VALID,0.423438,
2008-04-14, 02:52:04,VALID,1000.76,VALID,0,VALID,95.1093,VALID,0.100563,VALID,23.316,VALID,76,VALID,0.0863281,
2008-04-14, 02:53:04,VALID,1000.71,VALID,0,VALID,95.1398,VALID,0,VALID,23.2966,VALID,56,VALID,0.0921875,
2008-04-14, 02:54:04,VALID,1000.72,VALID,0,VALID,95.2084,VALID,0,VALID,23.2966,VALID,24,VALID,0.142969,
2008-04-14, 02:55:04,VALID,1000.73,VALID,0,VALID,95.2313,VALID,0,VALID,23.2966,VALID,25,VALID,0.219141,
2008-04-14, 02:56:04,VALID,1000.74,VALID,0,VALID,95.2313,VALID,0,VALID,23.316,VALID,88,VALID,0.464063,
2008-04-14, 02:57:04,VALID,1000.75,VALID,0,VALID,95.2771,VALID,0,VALID,23.2966,VALID,89,VALID,0.624219,
2008-04-14, 02:58:04,VALID,1000.73,VALID,0,VALID,95.2847,VALID,0,VALID,23.316,VALID,74,VALID,0.699609,
2008-04-14, 02:59:04,VALID,1000.76,VALID,0,VALID,95.2618,VALID,0,VALID,23.2966,VALID,95,VALID,0.714063,
2008-04-14, 03:00:04,VALID,1000.77,VALID,0,VALID,95.2008,VALID,0,VALID,23.3178,VALID,95,VALID,0.874609,
2008-04-14, 03:01:04,VALID,1000.7,VALID,0,VALID,95.2084,VALID,0,VALID,23.2966,VALID,96,VALID,0.612891,
2008-04-14, 03:02:04,VALID,1000.73,VALID,0,VALID,95.2008,VALID,0,VALID,23.2966,VALID,84,VALID,0.485938,
2008-04-14, 03:03:04,VALID,1000.73,VALID,0,VALID,95.2237,VALID,0.100563,VALID,23.2771,VALID,75,VALID,0.457422,
2008-04-14, 03:04:04,VALID,1000.71,VALID,0,VALID,95.2389,VALID,0,VALID,23.2771,VALID,75,VALID,0.404687,
2008-04-14, 03:05:04,VALID,1000.67,VALID,0,VALID,95.2847,VALID,0,VALID,23.2771,VALID,75,VALID,0,
2008-04-14, 03:06:04,VALID,1000.71,VALID,0,VALID,95.2923,VALID,0,VALID,23.2771,VALID,28,VALID,0.388281,
2008-04-14, 03:07:04,VALID,1000.75,VALID,0,VALID,95.3152,VALID,0,VALID,23.2771,VALID,28,VALID,0.208594,
2008-04-14, 03:08:04,VALID,1000.75,VALID,0,VALID,95.4068,VALID,0.100563,VALID,23.2948,VALID,116,VALID,0.597266,
2008-04-14, 03:09:04,VALID,1000.77,VALID,0,VALID,95.4068,VALID,0.100563,VALID,23.2948,VALID,116,VALID,0.516797,
2008-04-14, 03:10:04,VALID,1000.76,VALID,0,VALID,95.4144,VALID,0.100563,VALID,23.3143,VALID,116,VALID,0.318359,
2008-04-14, 03:11:04,VALID,1000.76,VALID,0,VALID,95.4144,VALID,0.100563,VALID,23.3143,VALID,116,VALID,0.145313,
2008-04-14, 03:12:04,VALID,1000.78,VALID,0,VALID,95.3839,VALID,0.100563,VALID,23.3143,VALID,90,VALID,0.294531,
2008-04-14, 03:13:04,VALID,1000.78,VALID,0,VALID,95.3839,VALID,0.100563,VALID,23.3355,VALID,101,VALID,0.482031,
2008-04-14, 03:14:04,VALID,1000.77,VALID,0,VALID,95.3763,VALID,0.100563,VALID,23.3143,VALID,100,VALID,0.180469,
2008-04-14, 03:15:04,VALID,1000.79,VALID,0,VALID,95.3381,VALID,0.100563,VALID,23.3143,VALID,97,VALID,0.352344,
2008-04-14, 03:16:04,VALID,1000.77,VALID,0,VALID,95.3229,VALID,0.100563,VALID,23.3143,VALID,102,VALID,0.266016,
2008-04-14, 03:17:04,VALID,1000.77,VALID,0,VALID,95.3152,VALID,0.100563,VALID,23.2948,VALID,47,VALID,0.293359,
2008-04-14, 03:18:04,VALID,1000.76,VALID,0,VALID,95.3,VALID,0.100563,VALID,23.3143,VALID,47,VALID,0.269141,
2008-04-14, 03:19:04,VALID,1000.73,VALID,0,VALID,95.3305,VALID,0.100563,VALID,23.316,VALID,47,VALID,0.0574219,
2008-04-14, 03:20:04,VALID,1000.72,VALID,0,VALID,95.4144,VALID,0.100563,VALID,23.2948,VALID,47,VALID,0.233984,
2008-04-14, 03:21:04,VALID,1000.71,VALID,0,VALID,95.422,VALID,0.100563,VALID,23.3143,VALID,47,VALID,0.181641,
2008-04-14, 03:22:04,VALID,1000.69,VALID,0,VALID,95.4754,VALID,0.100563,VALID,23.316,VALID,47,VALID,0.212891,
2008-04-14, 03:23:04,VALID,1000.71,VALID,0,VALID,95.567,VALID,0.100563,VALID,23.3355,VALID,47,VALID,0.171094,
2008-04-14, 03:24:04,VALID,1000.7,VALID,0,VALID,95.5899,VALID,0.100563,VALID,23.3532,VALID,47,VALID,0,
2008-04-14, 03:25:04,VALID,1000.73,VALID,0,VALID,95.5517,VALID,0,VALID,23.355,VALID,47,VALID,0,
2008-04-14, 03:26:04,VALID,1000.73,VALID,0,VALID,95.5975,VALID,0.100563,VALID,23.3532,VALID,47,VALID,0,
2008-04-14, 03:27:04,VALID,1000.69,VALID,0,VALID,95.5746,VALID,0.100563,VALID,23.3532,VALID,47,VALID,0,
2008-04-14, 03:28:04,VALID,1000.71,VALID,0,VALID,95.5517,VALID,0.100563,VALID,23.3532,VALID,47,VALID,0,
2008-04-14, 03:29:04,VALID,1000.72,VALID,0,VALID,95.567,VALID,0,VALID,23.3532,VALID,47,VALID,0.380078,
2008-04-14, 03:30:04,VALID,1000.72,VALID,0,VALID,95.628,VALID,0,VALID,23.355,VALID,47,VALID,0.439844,
2008-04-14, 03:31:04,VALID,1000.7,VALID,0,VALID,95.6433,VALID,0.100563,VALID,23.3337,VALID,46,VALID,0.169922,
2008-04-14, 03:32:04,VALID,1000.7,VALID,0,VALID,95.689,VALID,0.100563,VALID,23.3532,VALID,46,VALID,0.0980469,
2008-04-14, 03:33:04,VALID,1000.7,VALID,0,VALID,95.773,VALID,0.100563,VALID,23.3744,VALID,46,VALID,0,
2008-04-14, 03:34:04,VALID,1000.69,VALID,0,VALID,95.8111,VALID,0,VALID,23.3744,VALID,46,VALID,0,
2008-04-14, 03:35:04,VALID,1000.69,VALID,0,VALID,95.8721,VALID,0.100563,VALID,23.3921,VALID,46,VALID,0.233594,
2008-04-14, 03:36:04,VALID,1000.7,VALID,0,VALID,95.9027,VALID,0.100563,VALID,23.4116,VALID,46,VALID,0.330469,
2008-04-14, 03:37:04,VALID,1000.73,VALID,0,VALID,95.8569,VALID,0,VALID,23.4116,VALID,46,VALID,0.362891,
2008-04-14, 03:38:04,VALID,1000.75,VALID,0,VALID,95.8721,VALID,0,VALID,23.4346,VALID,46,VALID,0.442969,
2008-04-14, 03:39:04,VALID,1000.78,VALID,0,VALID,95.8416,VALID,0,VALID,23.4151,VALID,46,VALID,0.278906,
2008-04-14, 03:40:04,VALID,1000.78,VALID,0,VALID,95.8569,VALID,0,VALID,23.4346,VALID,44,VALID,0.374609,
2008-04-14, 03:41:04,VALID,1000.78,VALID,0,VALID,95.8798,VALID,0,VALID,23.4346,VALID,41,VALID,0.348047,
2008-04-14, 03:42:04,VALID,1000.8,VALID,0,VALID,95.9332,VALID,0,VALID,23.4346,VALID,29,VALID,0.362109,
2008-04-14, 03:43:04,VALID,1000.81,VALID,0,VALID,95.9561,VALID,0,VALID,23.4328,VALID,29,VALID,0.287891,
2008-04-14, 03:44:04,VALID,1000.82,VALID,0,VALID,95.9866,VALID,0,VALID,23.4753,VALID,29,VALID,0.39375,
2008-04-14, 03:45:04,VALID,1000.8,VALID,0,VALID,96.0552,VALID,0,VALID,23.493,VALID,27,VALID,0.251172,
2008-04-14, 03:46:04,VALID,1000.86,VALID,0,VALID,96.0629,VALID,0,VALID,23.493,VALID,27,VALID,0,